DW8185 Pensacola FL US current weather conditions

sailwx.info

Wind from 143

Air temperature 23.3° C
Dewpoint 22.8° C

Last reported at 2019-Jul-18 12:01 UTC.
Time now 2019-Jul-18 12:59 UTC

Location: N 30°31' W 087°20'.
View on Google Maps.

See reports from other nearby stations

  
Tides and Currents Weather Stations Pressure Air Temp Water Temp Dewpoint Dewpoint Depression Visibility Wind Speed Wind Dir Waves Ship Positions
date/time (UTC)wind fromknots sea level pressurealtimeterstation pressurevisibilityair tempwater tempwave heightnotes
2019-Jul-18 12:01 143 23.3
2019-Jul-18 11:47 143 22.8
2019-Jul-18 11:32 143 22.2
2019-Jul-18 11:16 143 22.2
2019-Jul-18 11:01 143 22.2
2019-Jul-18 10:46 143 22.2
2019-Jul-18 10:32 143 22.8
2019-Jul-18 10:16 143 22.2
2019-Jul-18 10:01 143 22.8
2019-Jul-18 09:46 143 22.8
2019-Jul-18 09:31 143 22.8
2019-Jul-18 09:17 143 22.8
2019-Jul-18 09:01 143 22.8
2019-Jul-18 08:46 143 23.3
2019-Jul-18 08:31 143 23.3
2019-Jul-18 08:16 143 22.8
2019-Jul-18 08:00 143 23.3
2019-Jul-18 07:45 143 23.3
2019-Jul-18 07:30 143 23.3
2019-Jul-18 07:16 143 23.3
2019-Jul-18 07:00 143 23.9
2019-Jul-18 06:45 143 23.9
2019-Jul-18 06:30 143 23.9
2019-Jul-18 06:00 143 24.4
2019-Jul-18 05:47 143 24.4
2019-Jul-18 05:16 143 25.0
2019-Jul-18 05:01 143 25.0
2019-Jul-18 04:45 143 25.0
2019-Jul-18 04:30 143 25.0
2019-Jul-18 04:16 143 25.6
2019-Jul-18 04:02 143 25.6
2019-Jul-18 03:46 143 25.6
2019-Jul-18 03:31 143 26.1
2019-Jul-18 03:15 160 26.1
2019-Jul-18 03:00 146 26.1
2019-Jul-18 02:45 146 26.1
2019-Jul-18 02:30 146 26.7
2019-Jul-18 02:15 146 26.7
2019-Jul-18 02:00 139 27.2
2019-Jul-18 01:47 186 27.2
2019-Jul-18 01:31 220 27.8
2019-Jul-18 01:16 217 28.3
2019-Jul-18 01:00 210 28.9
2019-Jul-18 00:45 200 29.4
2019-Jul-18 00:30 174 30.6
2019-Jul-18 00:15 134 1 gusting 4 31.1
2019-Jul-18 00:01 141 31.7
2019-Jul-17 23:45 211 1 gusting 6 32.2
2019-Jul-17 23:30 227 32.8
2019-Jul-17 23:15 203 32.8
2019-Jul-17 23:00 254 0 gusting 5 33.3
2019-Jul-17 22:46 221 0 gusting 4 34.4
2019-Jul-17 22:30 143 0 gusting 5 34.4
2019-Jul-17 22:15 236 0 gusting 3 34.4
2019-Jul-17 22:00 107 1 gusting 6 34.4
2019-Jul-17 21:45 207 0 gusting 4 34.4
2019-Jul-17 21:30 162 0 gusting 3 35.6
2019-Jul-17 21:15 250 35.0
2019-Jul-17 21:00 207 0 gusting 4 35.0
2019-Jul-17 20:45 090 0 gusting 4 34.4
2019-Jul-17 20:30 136 1 gusting 3 35.0
2019-Jul-17 20:15 263 35.0
2019-Jul-17 20:00 255 0 gusting 4 34.4
2019-Jul-17 19:45 107 34.4
2019-Jul-17 19:30 198 1 gusting 4 34.4
2019-Jul-17 19:17 134 0 gusting 4 33.9
2019-Jul-17 19:01 183 0 gusting 3 33.3
2019-Jul-17 18:47 248 32.8
2019-Jul-17 18:32 300 1 gusting 3 33.9
2019-Jul-17 18:16 120 0 gusting 3 35.6
2019-Jul-17 18:01 152 34.4
2019-Jul-17 17:46 297 0 gusting 2 35.0
2019-Jul-17 17:31 257 34.4
2019-Jul-17 17:16 141 2 gusting 3 33.9
2019-Jul-17 17:01 103 32.8
2019-Jul-17 16:47 314 32.2
2019-Jul-17 16:30 096 33.3
2019-Jul-17 16:16 303 0 gusting 4 33.3
2019-Jul-17 16:01 252 31.7
2019-Jul-17 15:46 105 32.8
2019-Jul-17 15:31 286 30.6
2019-Jul-17 15:16 287 1 gusting 4 31.1
2019-Jul-17 15:01 272 30.6
2019-Jul-17 14:46 297 0 gusting 3 29.4
2019-Jul-17 14:30 281 29.4
2019-Jul-17 14:15 306 0 gusting 2 28.9
2019-Jul-17 14:00 298 28.3
2019-Jul-17 13:45 266 28.3
2019-Jul-17 13:30 257 27.2
2019-Jul-17 13:15 300 26.7
2019-Jul-17 13:00 283 25.6
2019-Jul-17 12:47 226 24.4
2019-Jul-17 12:32 152 23.9
2019-Jul-17 12:16 152 22.8
2019-Jul-17 12:01 152 22.2
2019-Jul-17 11:46 152 21.7
2019-Jul-17 11:31 152 21.7
2019-Jul-17 11:16 152 21.1
2019-Jul-17 11:01 152 21.7
2019-Jul-17 10:46 152 21.7
2019-Jul-17 10:31 152 21.7
2019-Jul-17 10:15 152 21.7
2019-Jul-17 10:02 152 22.2
2019-Jul-17 09:46 152 21.7
2019-Jul-17 09:31 152 21.7
2019-Jul-17 09:16 152 21.7
2019-Jul-17 09:01 152 22.2
2019-Jul-17 08:46 152 22.2
2019-Jul-17 08:31 152 22.2
2019-Jul-17 08:16 152 22.2
2019-Jul-17 08:01 152 22.2
2019-Jul-17 07:45 152 22.2
2019-Jul-17 07:31 152 22.2
2019-Jul-17 07:16 152 22.8
2019-Jul-17 07:00 152 22.2
2019-Jul-17 06:45 152 22.2
2019-Jul-17 06:31 152 22.8
2019-Jul-17 06:16 152 22.8
2019-Jul-17 06:01 152 22.8
2019-Jul-17 05:45 152 22.8
2019-Jul-17 05:30 152 23.3
2019-Jul-17 05:15 152 23.3
2019-Jul-17 05:00 152 23.3
2019-Jul-17 04:45 152 23.9
2019-Jul-17 04:30 152 23.9
2019-Jul-17 04:15 152 23.9
2019-Jul-17 04:00 152 23.9
2019-Jul-17 03:45 152 24.4
2019-Jul-17 03:30 152 24.4
2019-Jul-17 03:15 152 24.4
2019-Jul-17 03:00 152 25.0
2019-Jul-17 02:45 151 25.0
2019-Jul-17 02:30 151 25.6
2019-Jul-17 02:15 158 25.6
2019-Jul-17 02:00 158 26.1
2019-Jul-17 01:45 158 26.7
2019-Jul-17 01:30 158 27.2
2019-Jul-17 01:15 158 27.8
2019-Jul-17 01:00 158 28.3
2019-Jul-17 00:45 154 29.4
2019-Jul-17 00:30 166 30.0
2019-Jul-17 00:15 188 30.6
2019-Jul-17 00:00 230 31.1
2019-Jul-16 23:45 136 31.7
2019-Jul-16 23:30 103 31.7
2019-Jul-16 23:15 257 32.2
2019-Jul-16 23:00 169 32.8
2019-Jul-16 22:45 263 1 gusting 4 32.8
2019-Jul-16 22:32 257 0 gusting 5 33.3
2019-Jul-16 22:17 195 33.9
2019-Jul-16 22:02 194 33.9
2019-Jul-16 21:46 149 0 gusting 4 33.9
2019-Jul-16 21:32 134 33.9
2019-Jul-16 21:16 269 33.9
2019-Jul-16 21:03 134 0 gusting 6 33.9
2019-Jul-16 20:46 199 2 gusting 6 33.9
2019-Jul-16 20:31 113 2 gusting 7 33.9
2019-Jul-16 20:17 158 1 gusting 6 34.4
2019-Jul-16 20:02 162 1 gusting 5 34.4
2019-Jul-16 19:47 158 1 gusting 6 33.9
2019-Jul-16 19:32 226 0 gusting 4 34.4
2019-Jul-16 19:17 109 0 gusting 4 34.4
2019-Jul-16 19:01 245 1 gusting 5 33.9
2019-Jul-16 18:46 233 33.9
2019-Jul-16 18:31 174 1 gusting 7 33.3
2019-Jul-16 18:16 221 0 gusting 4 33.3
2019-Jul-16 18:01 181 1 gusting 6 33.9
2019-Jul-16 17:46 162 0 gusting 5 33.9
2019-Jul-16 17:31 214 0 gusting 8 33.3
2019-Jul-16 17:16 130 3 gusting 7 33.3
2019-Jul-16 17:01 136 33.9
2019-Jul-16 16:45 183 33.3
2019-Jul-16 16:31 143 0 gusting 6 33.3
2019-Jul-16 16:16 153 0 gusting 6 32.2
2019-Jul-16 16:01 126 32.2
2019-Jul-16 15:45 203 1 gusting 5 32.2
2019-Jul-16 15:30 235 0 gusting 4 32.2
2019-Jul-16 15:15 125 0 gusting 5 31.7
2019-Jul-16 15:00 244 32.2
2019-Jul-16 14:46 180 31.7
2019-Jul-16 14:30 248 30.6
2019-Jul-16 14:15 223 0 gusting 4 30.0
2019-Jul-16 14:00 200 29.4
2019-Jul-16 13:45 259 28.9
2019-Jul-16 13:31 155 28.3
2019-Jul-16 13:16 122 27.8
2019-Jul-16 13:02 101 26.7
2019-Jul-16 12:46 131 25.6
2019-Jul-16 12:31 131 25.6
2019-Jul-16 12:16 131 24.4
2019-Jul-16 12:01 131 23.9